軌道要素
Epoch 2012 Feb. 3.0 TT = JDT 2455960.5
T 2012 Jan. 19.79243 TT MPC
q 1.3495365 (2000.0) P Q
z -0.0000159 Peri. 34.63232 +0.67955735 +0.45860330
+/-0.0000084 Node 287.36890 -0.73159918 +0.48156237
e 1.0000215 Incl. 36.86770 +0.05444674 +0.74684717
From 104 observations 2011 Aug. 26-2012 Apr. 26, mean residual 0".5.
|